Find Kineis-1B

NORAD ID: 60079 Int'l Des: 2024-114 Owner: KINEIS Country: F operational
LEOCIRCULARRETROGRADESSO

Live Position

Loading 3D Globe...

About Kineis-1B

Description loading...

Upcoming Passes

Passes for default location (London). Set your location on the main map for personalized predictions.

Altitude History

Loading altitude history...

Two-Line Element Set

1 60079U 24114A 26105.20008933 .00000444 00000-0 64924-4 0 9994
2 60079 97.9881 129.6796 0001238 334.0920 26.0230 14.80514507 98084
Epoch: Apr 15, 2026 • Age: 6 hours

Current Status

Altitude 643.0 km
Velocity 7.53 km/s
Sub-Earth Point -39.19°S, 60.06°W
Launch Date Jun 20, 2024
Age 1.8 years
Type other

Technical Details

Classification Payload
Mass 28.00 kg
Dry Mass 28.00 kg
Total Mass 28.00 kg
Length 0.40 m
Diameter 0.20 m
Span 1.60 m
Shape Box+ 2 pan + ant
Manufacturer KINEIS
Bus Type Cubesat 16U
Phase Status In Orbit
Owner/State KINEIS/F

Most Searched